Location: Unspecified
(17.6330°N, 0.0000°E)
Time: 04:45:36
(UTC+00:00)

Vanguard 2 Rocket - Visible Passes

Search period start: 26 June 2019 00:00
Search period end: 06 July 2019 00:00
Orbit: 555 x 3326 km, 32.9° (Epoch: 25 June)

Date Brightness Start Highest point End Pass type
(mag) Time Alt. Az. Time Alt. Az. Time Alt. Az.
26 Jun 9.4 00:10:44 10° NW 00:22:03 52° NNE 00:40:04 10° E visible
26 Jun 9.3 02:24:51 10° WNW 02:40:27 87° SSW 03:01:12 10° SE visible
26 Jun 9.8 04:42:05 10° WNW 04:59:03 42° SW 05:16:33 10° SSE visible
26 Jun 9.1 20:57:40 10° WNW 21:03:31 31° N 21:12:53 10° ENE visible
26 Jun 9.4 23:11:17 10° NW 23:20:34 42° NNE 23:35:51 10° E visible
27 Jun 9.2 01:24:47 10° WNW 01:38:23 77° NNE 01:58:43 10° ESE visible
27 Jun 9.5 03:40:16 10° WNW 03:56:52 54° SW 04:16:14 10° SE visible
27 Jun 8.7 19:58:18 10° WNW 20:03:08 31° N 20:10:39 10° NE visible
27 Jun 9.3 22:12:01 10° NW 22:19:28 34° NNE 22:31:39 10° ENE visible
28 Jun 9.1 00:25:07 10° NW 00:36:41 63° NNE 00:55:26 10° ESE visible
28 Jun 9.2 02:39:22 10° WNW 02:54:41 69° SW 03:15:02 10° SE visible
28 Jun 10.1 04:58:18 10° W 05:13:18 29° SW 05:28:50 10° SSE visible
28 Jun 8.2 18:58:55 10° W 19:03:09 35° NNW 19:09:24 10° NE visible
28 Jun 9.2 21:12:49 10° NW 21:18:43 28° N 21:27:59 10° ENE visible
28 Jun 9.1 23:25:47 10° NW 23:35:23 49° NNE 23:51:32 10° E visible
29 Jun 9.0 01:39:10 10° WNW 01:52:43 85° SSW 02:13:03 10° SE visible
29 Jun 9.8 03:55:37 10° W 04:11:07 40° SW 04:29:03 10° SSE visible
29 Jun 9.0 20:13:35 10° NW 20:18:17 25° N 20:25:14 10° NE visible
29 Jun 9.2 22:26:40 10° NW 22:34:27 38° NNE 22:47:24 10° E visible
30 Jun 8.9 00:39:27 10° WNW 00:53:52 67° E 01:10:17 10° ESE visible
30 Jun 9.4 03:00:23 31° W 03:08:58 52° SW 03:28:19 10° SE visible
30 Jun 8.7 19:14:14 10° WNW 19:18:08 24° N 19:23:36 10° NE visible
30 Jun 9.1 21:27:41 10° NW 21:33:49 29° NNE 21:42:30 12° ENE visible
30 Jun 8.8 23:40:08 10° NW 00:02:44 19° ESE 00:06:53 10° ESE visible
01 Jul 9.1 02:08:52 63° S 02:08:52 63° S 02:26:48 10° SE visible
01 Jul 10.0 04:14:59 16° WSW 04:25:38 27° SW 04:41:09 10° SSE visible
01 Jul 9.1 20:28:44 10° NW 20:33:26 23° N 20:40:18 10° ENE visible
01 Jul 8.8 22:41:06 10° NW 22:49:09 46° NNE 22:50:03 46° NE visible
02 Jul 9.9 00:53:50 10° WNW 01:15:38 33° SE 01:24:34 10° SE visible
02 Jul 9.6 03:21:40 36° SW 03:23:26 37° SW 03:41:00 10° SSE visible
02 Jul 8.9 19:29:38 10° NW 19:33:14 19° N 19:38:04 10° NE visible
02 Jul 8.9 21:42:15 10° NW 21:48:41 34° NNE 21:52:31 27° ENE visible
02 Jul 9.3 23:54:26 10° WNW 00:21:39 10° ESE 00:21:42 10° ESE visible
03 Jul 9.8 02:27:39 38° S 02:27:39 38° S 02:39:58 10° SE visible
03 Jul 10.2 04:33:38 14° WSW 04:40:35 18° SW 04:52:05 10° S visible
03 Jul 9.0 20:43:31 10° NW 20:48:27 25° NNE 20:55:16 11° ENE visible
03 Jul 8.7 22:55:23 10° NW 23:00:59 48° NNW 23:00:59 48° NNW visible
04 Jul 10.4 01:33:11 21° SE 01:33:11 21° SE 01:38:13 10° SE visible
04 Jul 10.0 03:39:07 25° SSW 03:39:07 25° SSW 03:52:53 10° SSE visible
04 Jul 9.0 19:44:46 10° NW 19:48:20 18° N 19:53:04 10° NE visible
04 Jul 8.5 21:56:35 10° NW 22:03:18 43° NNE 22:03:56 43° NE visible
05 Jul 9.9 00:08:50 10° WNW 00:38:21 - SE 00:09:40 14° WNW visible
05 Jul 10.2 02:44:15 24° S 02:44:15 24° S 02:52:28 10° SSE visible
05 Jul 8.7 20:57:57 10° NW 21:03:15 30° NNE 21:07:01 22° ENE visible
05 Jul 9.1 23:09:40 10° WNW 23:12:45 30° NW 23:12:45 30° NW visible
